Regional Weather Roundup
Issued by NWS Wakefield, VA

Home | Current Version | Previous Version | Text Only | Print | Product List | Glossary Off
Versions: 1 2 3 4 5 6 7 8 9 10 11 12 13 14 15 16 17 18 19 20 21 22 23 24 25 26 27 28 29 30 31 32 33 34 35 36 37 38 39 40 41 42 43 44 45 46 47 48 49 50

000
ASUS41 KAKQ 252110
RWRAKQ

REGIONAL WEATHER ROUNDUP
NATIONAL WEATHER SERVICE WAKEFIELD VA
500 PM EDT FRI JUL 25 2014

Note: "fair" indicates few or no clouds below 12,000 feet with no
significant weather and/or obstructions to visibility. * = Denotes
station may not report precipitation (e.g., rain,snow,etc.),
thunder or fog.

VAZ042-051-052>054-056-252200-
NORTHERN VIRGINIA

CITY           SKY/WX    TMP DP  RH WIND       PRES   REMARKS
WASH NATIONAL  MOSUNNY   85  54  34 NE5       30.00S
DULLES         MOSUNNY   81  52  36 CALM      30.01S
FORT BELVOIR   SUNNY     83  56  40 W6        30.01S
QUANTICO       MOSUNNY   81  58  45 VRB3      30.01S
FREDERICKSBRG* PTSUNNY   83  59  43 SW9       30.00S
STAFFORD*      MOSUNNY   82  57  41 W6        30.05S
WARRENTON      MOSUNNY   82  65  56 CALM      30.01S
CULPEPER*      MOSUNNY  N/A N/A N/A SW3       30.01F
MANASSAS*      MOSUNNY   81  57  44 SW3       30.01S
LEESBURG*      SUNNY     81  55  41 CALM      30.02F
WINCHESTER     SUNNY     82  54  36 W5        30.01S
$$

VAZ048-049-060>072-079>083-252200-
CENTRAL AND SOUTH CENTRAL VIRGINIA...AND NORTH CENTRAL NORTH CAROLINA

CITY           SKY/WX    TMP DP  RH WIND       PRES   REMARKS
RICHMOND       PTSUNNY   85  58  39 VRB7      30.00F
CHESTERFIELD*  PTCLDY    82  55  39 SW8       30.01F
HANOVER        MOSUNNY   82  57  42 SW7       30.01F
TAPPAHANNOCK*  SUNNY     84  51  32 CALM      30.01S
CHARLOTTSVILLE PTSUNNY   81  60  48 NW3       30.01R
ORANGE*        MOSUNNY   79  59  50 CALM      30.03R
LOUISA*        PTSUNNY   81  61  50 CALM      30.01R
FARMVILLE*     PTSUNNY   82  57  42 CALM      29.99S
SOUTH HILL*    PTSUNNY   82  64  54 S6        30.06F
ROANOKE RAPIDS CLOUDY    84  63  48 CALM      30.01S
RALEIGH        PTSUNNY   82  65  56 SE7       30.02S
$$

VAZ088>098-252200-
SOUTHEAST VIRGINIA

CITY           SKY/WX    TMP DP  RH WIND       PRES   REMARKS
NORFOLK        SUNNY     80  58  46 NE8       30.00F
VIRGINIA BEACH MOSUNNY   81  56  42 NE9       29.99F
NORFOLK NAVAL  MOSUNNY   81  59  47 VRB5      30.01F
WEST POINT*    MOSUNNY   84  55  36 W3        30.01F
NEWPORT NEWS   MOSUNNY   85  61  44 E6        30.00F
LANGLEY AFB    PTSUNNY   80  60  51 E7        30.00F
FORT EUSTIS    SUNNY     82  63  52 NW5       29.98F
WILLIAMSBURG*  MOSUNNY   88  63  42 S6        30.00F
FRANKLIN*      MOSUNNY   82  57  42 CALM      30.00F
WAKEFIELD      MOSUNNY   83  62  49 CALM      30.00F
$$

VAZ020-022-025-037-045-252200-
WESTERN AND SOUTHWEST VIRGINIA

CITY           SKY/WX    TMP DP  RH WIND       PRES   REMARKS
STAUNTON*      PTSUNNY   80  60  50 S6        30.05R
HOT SPRINGS VA PTSUNNY   71  52  51 W5        30.16S
LYNCHBURG      SUNNY     80  62  54 S7        30.03F
DANVILLE       SUNNY     83  64  52 CALM      30.01F
MARTINSVILLE   SUNNY     84  64  50 SW7       30.02F
ROANOKE        MOSUNNY   80  62  54 S8        30.03F
BLACKSBURG     MOSUNNY   81  66  61 E8          N/A
DUBLIN*        MOSUNNY   83  58  41 CALM      30.06S
MARION*        MOSUNNY  N/A N/A N/A W9        30.10F
HILLSVILLE*    PTSUNNY   73  63  69 S5        30.08F
RICHLANDS*     CLEAR     78  61  55 W9        30.10F
WISE*          MOSUNNY   77  59  53 N3        30.11F
ABINGDON*      SUNNY     80  60  49 NW7       30.07S
$$

MDZ021>025-VAZ099-100-252200-
SOUTHERN MARYLAND AND THE DELMARVA PENINSULA

CITY           SKY/WX    TMP DP  RH WIND       PRES   REMARKS
PATUXENT RIVER MOSUNNY   78  57  48 E5        30.00S
BAY BRIDGE APT   N/A     79  48  34 N6        30.00S
LEONARDTOWN    SUNNY     81  54  39 NW5       30.02R
DOVER          SUNNY     81  60  48 SE6       29.98F
GEORGETOWN     SUNNY     81  51  35 VRB7      30.00S
EASTON         SUNNY     81  55  41 NE6       30.04S
CAMBRIDGE      SUNNY     81  50  34 NE6       30.00S
SALISBURY      NOT AVBL
OCEAN CITY     SUNNY     76  64  66 SE8       30.00S
WALLOPS ISLAND SUNNY     80  57  45 SE9       30.00S
ACCOMACK*        N/A     79  50  36 N8        30.00F
$$

NCZ012>017-030>032-252200-
EASTERN NORTH CAROLINA

CITY           SKY/WX    TMP DP  RH WIND       PRES   REMARKS
ELIZABETH CITY MOSUNNY   80  61  52 E6        30.01F
AHOSKIE*       MOSUNNY   81  64  55 E3        30.01S
EDENTON*       SUNNY     82  66  58 E6        30.01S
CURRITUCK*     SUNNY     83  54  37 NE5       30.02F
KILL DEVIL HLS SUNNY     78  61  55 NE6       30.01S
MANTEO         NOT AVBL
CAPE HATTERAS  CLOUDY    80  69  69 VRB5      30.02S
GOLDSBORO      PTSUNNY   82  72  72 VRB2      29.98F
WASHINGTON     MOSUNNY   81  68  65 CALM      30.01S
GREENVILLE     MOSUNNY   82  70  65 SE7       30.02S
NEW BERN       CLOUDY    83  71  67 SE5       30.02S
WILMINGTON     CLOUDY    79  72  79 E8        30.01S
$$

VAZ048-252200-
ELSEWHERE

CITY           SKY/WX    TMP DP  RH WIND       PRES   REMARKS
HARRISBURG PA  MOSUNNY   80  42  25 W3        29.99F
BALTIMORE      MOSUNNY   82  51  34 W7        29.99F
ANNAPOLIS      SUNNY     78  55  44 SE9       30.00S
ANDREWS AFB    SUNNY     83  53  35 VRB5      30.00S
WILMINGTON DE  SUNNY     80  56  43 VRB3      29.99S
PHILADELPHIA   MOSUNNY   83  52  34 VRB3      29.97F
WILDWOOD NJ*   SUNNY     79  54  41 W8        30.00F
ATLANTIC CITY  SUNNY     77  63  61 SE12      29.99F
HENDERSON NC   MOSUNNY   80  60  50 E7        30.02S
GREENSBORO     PTSUNNY   81  65  58 CALM      30.01S
ROCKY MOUNT    PTSUNNY   82  67  60 VRB5      30.01S
FAYETTEVILLE   CLOUDY    83  69  62 E8        29.99F
CHARLOTTE      PTSUNNY   84  65  52 CALM      30.00S
$$

VAZ100-252200-
MARINE

STATION/POSITION TIME  TEMP    WIND        PRES    WAVE   SWELL
                       AIR SEA DIR/SP/G            HT/PER HT/PER
                 (UTC) (F)     (DEG/KT/KT) (MB)    (FT/S) (FT/S)
44066 TX TWR #4  2100   73 75   CALM  /  2 1015.8F   3/ 7   2/ 7
CAPE MAY NJ      2100   76 79  240/  5/  6 1015.3F
LEWES DE         2100   75 76   70/  6/  7 1015.4F
15NM E FENWICK I 2100   73 77              1016.3R   2/ 7
OCEAN-CITY-INLET 2100   74 76  130/  5/  8 1015.6S
WACHAPREAGUE VA  2100   80 82  320/  4/  7 1015.8S
THOMAS POINT MD  2100   77 79  110/  5/  7 1016.5R
GOOSES REEF MD   2100   77     120/  4/  6 1016.6S
COVE POINT MD    2100   77      40/  6/  7 1015.8S
SOLOMONS ISLAND  2100      82                N/A
BISHOPS HEAD MD  2100   78 80  270/  5/  6 1015.6R
PINEY POINT MD   2100          330/ 10/ 11   N/A
POTOMAC MD       2100   76     140/  4/  8 1015.3S
CAMBRIDGE MD     2100   78 79   10/  2/  3 1015.7F
LEWISETTA VA     2100   80 80   10/  6/  8 1015.7R
RAPPAHANNOCK LGT 2100           40/  6/  7 1016.4F
STINGRAY PT      2100   77     100/  6/  8 1016.6F
YORK RVR RNG VA  2100   76     120/  7/  8 1015.4S
YORKTOWN VA      2100   78 82   80/  8/  9 1015.5F
JAMESTOWN VA     2100   79     310/  4/  4   N/A
DOMINION TERM VA 2100   78     100/  7/  9 1015.9F
KIPTOPEKE VA     2100      83  320/  4/  5   N/A
CHES BAY BRIDGE  2100   77 79   80/  1/  3 1015.5F
CAPE HENRY VA    2100   79      30/  2/  4 1015.0S
WILLOUBY STN VA  2100           70/  7/  8 1015.3F
S CRANEY ISL VA  2100           20/  3/  3 1015.8F
CAPE HENRY BUOY  2000      78                N/A     2/ 7
1ST LANDING BUOY 2100   78      50/  2/  4 1015.9R
CAPE CHARLES BUO 2100      76                N/A     2/ 7
OFFSHORE WE BUOY 2100      78                N/A     2/ 5
64NM E OF VA BCH 2100   75 78  360/  6/ 10 1015.9F   3/ 5   2/ 5
DUCK PIER NC     2100   76 76   60/  7/  9 1015.8S
44056 DUCK FRF   2100                        N/A     2/ 4
OREGON INLET NC  2100   77 78   40/  8/ 12 1016.5S
HATTERAS NC      2100   78 80  100/  6/ 10 1016.8S
DIAMOND SHLS NC  2100          VRB  6/  8  1016.2F   3/ 7   3/ 7
CAPE LOOKOUT NC  2000   78     100/ 11/ 12 1016.5F
$$



USA.gov is the U.S. government's official web portal to all federal, state and local government web resources and services.